Oxford, AL

9:44 PM CST on February 10, 2016 (GMT -0600)
Anniston Metro

Weather History for KANB - December, 2013

Change the Weather History Date:

Sunday, December 22, 2013

  Actual Average Record
Temperature  
Mean Temperature 64 °F 44 °F  
Max Temperature 73 °F 54 °F 73 °F (1990)
Min Temperature 54 °F 34 °F 8 °F (1989)
Degree Days  
Heating Degree Days 1    
Month to date heating degree days 328  
Since 1 July heating degree days 857  
Growing Degree Days 14 (Base 50)    
Moisture  
Dew Point 56 °F    
Average Humidity 87    
Maximum Humidity 100    
Minimum Humidity 73    
Precipitation  
Precipitation 2.29 in 0.13 in 2.45 in (1968)
Month to date precipitation 7.47 3.02  
Year to date precipitation 73.53 48.57  
Sea Level Pressure  
Sea Level Pressure 29.98 in    
Wind  
Wind Speed 4 mph (SW)    
Max Wind Speed 31 mph    
Max Gust Speed 56 mph    
Visibility 7 miles    
Events Rain , Thunderstorm    
T = Trace of Precipitation, MM = Missing Value Source: NWS Daily Summary

Daily Weather History Graph

Daily Weather History Graph

Search for Another Location

Airport or City:

Trip Planner

Search our weather history database for the weather conditions in past years. The results will help you decide how hot, cold, wet, or windy it might be!

Date:

Astronomy

Dec. 22, 2013 Rise Set
Actual Time 6:44 AM CST 4:39 PM CST
Civil Twilight 6:16 AM CST 5:07 PM CST
Nautical Twilight 5:45 AM CST 5:38 PM CST
Astronomical Twilight 5:15 AM CST 6:09 PM CST
Moon 9:38 PM CST (12/22) 9:52 AM CST (12/22)
Length of Visible Light 10h 50m
Length of Day
9h 55m
Waning Gibbous, 76% of the Moon is Illuminated
Dec 22
Waning Gibbous
Dec 25
Last Quarter
Jan 1
New
Jan 7
First Quarter
Jan 15
Full

Hourly Weather History & Observations

Time (CST) Temp. Dew Point Humidity Pressure Visibility Wind Dir Wind Speed Gust Speed Precip Events Conditions
12:14 AM 73.0 °F 64.9 °F 76% 29.88 in 10.0 mi SSW 12.7 mph 24.2 mph N/A   Overcast
12:53 AM 73.0 °F 64.9 °F 76% 29.85 in 10.0 mi South 18.4 mph 31.1 mph N/A   Overcast
1:00 AM 73.0 °F 64.9 °F 76% 29.87 in 10.0 mi South 15.0 mph 31.1 mph N/A   Overcast
1:53 AM 73.0 °F 64.9 °F 76% 29.83 in 10.0 mi South 13.8 mph 25.3 mph 0.00 in   Mostly Cloudy
2:23 AM 73.0 °F 64.9 °F 76% 29.85 in 10.0 mi South 12.7 mph 23.0 mph N/A   Overcast
2:53 AM 73.0 °F 64.9 °F 76% 29.84 in 10.0 mi SSW 11.5 mph 27.6 mph N/A   Overcast
3:25 AM 71.1 °F 66.0 °F 84% 29.86 in 7.0 mi South 11.5 mph 24.2 mph 0.02 in Rain Light Rain
3:35 AM 71.1 °F 66.0 °F 84% 29.86 in 7.0 mi South 11.5 mph - 0.03 in Rain Light Rain
3:53 AM 71.1 °F 66.9 °F 87% 29.83 in 10.0 mi SSW 6.9 mph - 0.03 in   Overcast
4:14 AM 64.0 °F 59.0 °F 84% 29.89 in 7.0 mi NW 18.4 mph 56.4 mph 0.05 in Rain Light Rain
4:18 AM 61.0 °F 57.0 °F 87% 29.89 in 1.8 mi West 8.1 mph 56.4 mph 0.23 in Rain Heavy Rain
4:45 AM 60.1 °F 55.9 °F 86% 29.92 in 2.5 mi West 12.7 mph 20.7 mph 0.48 in Rain Rain
4:53 AM 59.0 °F 55.9 °F 90% 29.91 in 3.0 mi West 9.2 mph 19.6 mph 0.50 in Rain Light Rain
5:25 AM 57.9 °F 55.0 °F 90% 29.95 in 2.5 mi West 4.6 mph - 0.13 in Rain , Thunderstorm Rain
5:28 AM 57.9 °F 55.0 °F 90% 29.96 in 2.5 mi SW 5.8 mph - 0.16 in Rain , Thunderstorm Rain
5:43 AM 57.9 °F 55.0 °F 90% 29.94 in 3.0 mi West 5.8 mph - 0.22 in Rain , Thunderstorm Rain
5:53 AM 57.9 °F 55.0 °F 90% 29.96 in 7.0 mi WSW 6.9 mph - 0.24 in Rain , Thunderstorm Light Rain
6:00 AM 57.0 °F 55.0 °F 93% 29.94 in 6.0 mi West 5.8 mph - 0.01 in Rain , Thunderstorm Light Rain
6:12 AM 57.0 °F 54.0 °F 89% 29.95 in 6.0 mi SW 3.5 mph - 0.03 in Rain Light Rain
6:36 AM 57.0 °F 54.0 °F 89% 29.98 in 3.0 mi SW 6.9 mph - 0.12 in Rain Rain
6:53 AM 55.9 °F 54.0 °F 93% 29.96 in 5.0 mi South 3.5 mph - 0.18 in Rain , Thunderstorm Rain
7:19 AM 55.9 °F 54.0 °F 93% 29.97 in 4.0 mi Calm Calm - 0.08 in Rain Light Rain
7:53 AM 55.9 °F 54.0 °F 93% 30.00 in 3.0 mi Calm Calm - 0.26 in Rain Heavy Rain
8:00 AM 55.9 °F 54.0 °F 93% 30.02 in 2.0 mi Variable 3.5 mph - 0.05 in Rain Rain
8:10 AM 55.9 °F 54.0 °F 93% 30.03 in 4.0 mi SSW 3.5 mph - 0.09 in Rain Rain
8:26 AM 55.9 °F 54.0 °F 93% 30.01 in 5.0 mi East 3.5 mph - 0.15 in Rain Rain
8:53 AM 55.9 °F 54.0 °F 93% 30.03 in 2.5 mi Calm Calm - 0.25 in Rain Rain
9:03 AM 55.9 °F 54.0 °F 93% 30.02 in 3.0 mi East 3.5 mph - 0.05 in Rain Rain
9:53 AM 55.0 °F 53.1 °F 93% 29.98 in 5.0 mi ENE 5.8 mph - 0.18 in Rain Rain
10:53 AM 55.9 °F 54.0 °F 93% 29.99 in 10.0 mi NNE 5.8 mph - 0.08 in Rain Light Rain
11:53 AM 57.0 °F 55.0 °F 93% 30.00 in 4.0 mi ENE 3.5 mph - 0.04 in Rain Light Rain
12:53 PM 57.9 °F 54.0 °F 87% 29.98 in 9.0 mi Calm Calm - 0.05 in Rain Light Rain
1:53 PM 57.0 °F 55.0 °F 93% 29.97 in 7.0 mi Variable 4.6 mph - 0.06 in Rain Light Rain
2:53 PM 57.0 °F 55.0 °F 93% 29.99 in 4.0 mi Calm Calm - 0.12 in Rain Light Rain
3:53 PM 57.0 °F 54.0 °F 89% 29.99 in 10.0 mi NNE 4.6 mph - 0.01 in Rain Light Rain
4:53 PM 55.9 °F 54.0 °F 93% 30.04 in 6.0 mi WNW 3.5 mph - 0.02 in Rain Light Rain
5:53 PM 55.9 °F 54.0 °F 93% 30.02 in 8.0 mi Calm Calm - 0.05 in Rain Light Rain
6:31 PM 55.9 °F 54.0 °F 93% 30.04 in 10.0 mi Calm Calm - 0.00 in Rain Light Rain
6:53 PM 55.0 °F 54.0 °F 96% 30.06 in 8.0 mi WSW 3.5 mph - 0.01 in Rain Light Rain
7:35 PM 55.0 °F 53.1 °F 93% 30.08 in 10.0 mi SW 3.5 mph - 0.03 in Rain Light Rain
7:45 PM 55.0 °F 53.1 °F 93% 30.09 in 10.0 mi South 4.6 mph - 0.03 in Rain Light Rain
7:51 PM 55.4 °F 53.6 °F 94% 30.08 in 10.0 mi Calm Calm - 0.03 in Rain Light Rain
7:53 PM 55.0 °F 54.0 °F 96% 30.09 in 9.0 mi SSW 3.5 mph - 0.04 in Rain Light Rain
8:53 PM 55.0 °F 53.1 °F 93% 30.08 in 7.0 mi NNW 3.5 mph - 0.04 in Rain Light Rain
9:53 PM 54.0 °F 53.1 °F 97% 30.08 in 10.0 mi ESE 4.6 mph - 0.02 in Rain Light Rain
10:22 PM 55.0 °F 53.1 °F 93% 30.11 in 10.0 mi Calm Calm - 0.01 in   Overcast
10:38 PM 55.0 °F 53.1 °F 93% 30.11 in 8.0 mi Calm Calm - 0.02 in Rain Light Rain
10:53 PM 55.0 °F 53.1 °F 93% 30.11 in 5.0 mi Calm Calm - 0.04 in Rain Rain
11:53 PM 54.0 °F 53.1 °F 97% 30.11 in 6.0 mi South 5.8 mph - 0.06 in Rain Light Rain